Location: Unspecified
(43.4354°N, 0.0000°E)
Time: 21:46:27
(UTC+00:00)

Vanguard 2 Rocket - Visible Passes

Search period start: 29 September 2020 00:00
Search period end: 09 October 2020 00:00
Orbit: 554 x 3326 km, 32.9° (Epoch: 29 September)

Date Brightness Start Highest point End Pass type
(mag) Time Alt. Az. Time Alt. Az. Time Alt. Az.
29 Sep 9.6 02:15:09 47° S 02:18:40 50° SSE 02:37:26 10° E visible
29 Sep 9.8 04:20:57 21° WSW 04:35:58 61° S 04:53:41 10° ESE visible
29 Sep 10.9 23:12:57 10° E 23:12:57 10° E 23:13:21 10° E visible
30 Sep 9.8 01:18:44 42° SE 01:18:44 42° SE 01:35:23 10° E visible
30 Sep 9.7 03:24:30 36° SW 03:33:56 60° S 03:52:46 10° E visible
01 Oct 10.2 00:22:17 29° ESE 00:22:17 29° ESE 00:32:41 10° E visible
01 Oct 9.5 02:28:04 50° SSW 02:32:01 56° SSE 02:51:19 10° E visible
01 Oct 9.8 04:33:51 19° WSW 04:49:31 60° S 05:07:20 10° ESE visible
01 Oct 10.7 23:25:51 15° E 23:25:51 15° E 23:29:11 10° E visible
02 Oct 9.6 01:31:38 49° SSE 01:31:38 49° SSE 01:49:22 10° E visible
02 Oct 9.7 03:37:25 35° WSW 03:47:28 61° S 04:06:30 10° ESE visible
03 Oct 10.0 00:35:13 34° ESE 00:35:13 34° ESE 00:46:54 10° E visible
03 Oct 9.4 02:41:00 51° SSW 02:45:30 59° S 03:05:06 10° E visible
03 Oct 9.8 04:46:48 16° W 05:03:00 56° SSW 05:20:47 10° ESE visible
03 Oct 10.5 23:38:50 19° E 23:38:50 19° E 23:43:53 10° E visible
04 Oct 9.5 01:44:37 55° SSE 01:44:37 55° SSE 02:03:11 10° E visible
04 Oct 9.7 03:50:24 32° WSW 04:01:01 59° S 04:20:04 10° ESE visible
05 Oct 9.9 00:48:14 39° ESE 00:48:14 39° ESE 01:00:50 10° E visible
05 Oct 9.4 02:54:02 50° SW 02:59:03 60° S 03:18:45 10° ESE visible
05 Oct 9.9 04:59:49 14° W 05:16:21 50° SSW 05:33:57 10° SE visible
05 Oct 10.4 23:51:54 23° E 23:51:54 23° E 23:58:04 10° E visible
06 Oct 9.3 01:57:41 58° SSE 01:57:41 58° SSE 02:16:55 10° E visible
06 Oct 9.7 04:03:29 29° WSW 04:14:32 55° SSW 04:33:25 10° SE visible
07 Oct 9.7 01:01:23 43° ESE 01:01:23 43° ESE 01:14:37 10° E visible
07 Oct 9.4 03:07:11 47° SW 03:12:37 59° S 03:32:15 10° ESE visible
07 Oct 10.0 05:12:58 11° W 05:29:35 43° SSW 05:46:41 10° SE visible
08 Oct 10.3 00:05:07 25° ESE 00:05:07 25° ESE 00:11:59 10° E visible
08 Oct 9.3 02:10:55 59° S 02:10:55 59° S 02:30:30 10° ESE visible
08 Oct 9.8 04:16:43 26° WSW 04:27:56 49° SSW 04:46:27 10° SE visible
08 Oct 10.8 23:08:54 10° E 23:08:54 10° E 23:09:06 10° E visible
